| time (UTC) | temp F | wind direction | speed knots | gust knots | rain 1hr in | rain 24hr in | rain mn in | humidity % | barometer mb |
| 20260507040037 | 53 | 272 | 6.1 | 12.2 | 0.00 | 0.00 | 0.00 | 82 | 1021.7 |
| 20260507034545 | 53 | 270 | 5.2 | 9.6 | 0.00 | 0.00 | 0.00 | 82 | 1021.6 |
| 20260507033042 | 54 | 268 | 6.1 | 14.8 | 0.00 | 0.00 | 0.00 | 81 | 1021.6 |
| 20260507031542 | 54 | 264 | 6.1 | 13.0 | 0.00 | 0.00 | 0.00 | 81 | 1021.5 |
| 20260507030042 | 54 | 271 | 6.1 | 11.3 | 0.00 | 0.00 | 0.00 | 80 | 1021.3 |
| 20260507024538 | 54 | 278 | 7.0 | 9.6 | 0.00 | 0.00 | 0.00 | 80 | 1021.3 |
| 20260507023037 | 55 | 274 | 6.1 | 12.2 | 0.00 | 0.00 | 0.00 | 79 | 1021.1 |
| 20260507021545 | 55 | 269 | 7.0 | 11.3 | 0.00 | 0.00 | 0.00 | 79 | 1021.3 |
| 20260507020044 | 55 | 271 | 7.0 | 13.0 | 0.00 | 0.00 | 0.00 | 78 | 1021.1 |
| 20260507014549 | 56 | 312 | 6.1 | 16.5 | 0.00 | 0.00 | 0.00 | 76 | 1021.4 |
| 20260507013048 | 57 | 280 | 7.0 | 15.6 | 0.00 | 0.00 | 0.00 | 75 | 1021.4 |
| 20260507011540 | 57 | 290 | 9.6 | 13.0 | 0.00 | 0.00 | 0.00 | 74 | 1021.5 |
| 20260507010052 | 58 | 266 | 7.8 | 12.2 | 0.00 | 0.00 | 0.00 | 74 | 1021.5 |
| 20260507004537 | 58 | 290 | 5.2 | 10.4 | 0.00 | 0.00 | 0.00 | 74 | 1021.5 |
| 20260507003039 | 58 | 269 | 8.7 | 14.8 | 0.00 | 0.00 | 0.00 | 73 | 1021.3 |
| 20260507001552 | 59 | 267 | 7.8 | 18.2 | 0.00 | 0.00 | 0.00 | 72 | 1021.3 |
| 20260507000042 | 59 | 255 | 8.7 | 13.9 | 0.00 | 0.00 | 0.00 | 71 | 1021.2 |
| 20260506234539 | 60 | 270 | 7.0 | 12.2 | 0.00 | 0.00 | 0.00 | 70 | 1021.3 |
| 20260506233100 | 60 | 264 | 6.1 | 12.2 | 0.00 | 0.00 | 0.00 | 71 | 1021.3 |
| 20260506231544 | 60 | 263 | 7.8 | 17.4 | 0.00 | 0.00 | 0.00 | 71 | 1021.3 |
| 20260506230048 | 60 | 257 | 7.8 | 13.9 | 0.00 | 0.00 | 0.00 | 70 | 1021.3 |
| 20260506224543 | 61 | 281 | 8.7 | 13.9 | 0.00 | 0.00 | 0.00 | 70 | 1021.3 |
| 20260506223038 | 61 | 278 | 7.8 | 22.6 | 0.00 | 0.00 | 0.00 | 69 | 1021.4 |
| 20260506221545 | 61 | 262 | 7.0 | 10.4 | 0.00 | 0.00 | 0.00 | 68 | 1021.3 |
| 20260506220042 | 61 | 269 | 8.7 | 16.5 | 0.00 | 0.00 | 0.00 | 69 | 1021.1 |
| 20260506214552 | 61 | 271 | 8.7 | 14.8 | 0.00 | 0.00 | 0.00 | 69 | 1021.0 |
| 20260506213044 | 61 | 294 | 8.7 | 13.9 | 0.00 | 0.00 | 0.00 | 68 | 1021.0 |
| 20260506211542 | 62 | 313 | 5.2 | 13.0 | 0.00 | 0.00 | 0.00 | 68 | 1021.1 |
| 20260506210041 | 62 | 212 | 5.2 | 13.0 | 0.00 | 0.00 | 0.00 | 68 | 1021.1 |
| 20260506204539 | 61 | 281 | 7.0 | 12.2 | 0.00 | 0.00 | 0.00 | 69 | 1021.1 |
| 20260506203037 | 61 | 273 | 7.0 | 13.9 | 0.00 | 0.00 | 0.00 | 69 | 1021.1 |
| 20260506201540 | 61 | 273 | 6.1 | 8.7 | 0.00 | 0.00 | 0.00 | 70 | 1021.1 |
| 20260506200047 | 60 | 284 | 7.0 | 12.2 | 0.00 | 0.00 | 0.00 | 72 | 1021.4 |
| 20260506194546 | 60 | 276 | 6.1 | 8.7 | 0.00 | 0.00 | 0.00 | 72 | 1021.4 |
| 20260506193043 | 59 | 277 | 7.0 | 10.4 | 0.00 | 0.00 | 0.00 | 73 | 1021.4 |
| 20260506191542 | 59 | 352 | 7.0 | 11.3 | 0.00 | 0.00 | 0.00 | 73 | 1021.5 |
| 20260506190046 | 60 | 67 | 5.2 | 9.6 | 0.00 | 0.00 | 0.00 | 74 | 1021.4 |
| 20260506184544 | 60 | 275 | 5.2 | 11.3 | 0.00 | 0.00 | 0.00 | 73 | 1021.3 |
| 20260506183039 | 59 | 280 | 3.5 | 6.1 | 0.00 | 0.00 | 0.00 | 75 | 1021.4 |
| 20260506181540 | 59 | 268 | 1.7 | 7.0 | 0.00 | 0.00 | 0.00 | 75 | 1021.3 |
| 20260506180044 | 58 | 291 | 3.5 | 7.0 | 0.00 | 0.00 | 0.00 | 76 | 1021.5 |
| 20260506174537 | 57 | 260 | 3.5 | 7.8 | 0.00 | 0.00 | 0.00 | 78 | 1021.4 |
| 20260506173044 | 57 | 299 | 4.3 | 8.7 | 0.00 | 0.00 | 0.00 | 78 | 1021.4 |
| 20260506171551 | 57 | 264 | 2.6 | 3.5 | 0.00 | 0.00 | 0.00 | 78 | 1021.2 |
| 20260506170044 | 56 | 0 | 0.9 | 2.6 | 0.00 | 0.00 | 0.00 | 79 | 1021.2 |
| 20260506164553 | 56 | 311 | 3.5 | 6.1 | 0.00 | 0.00 | 0.00 | 79 | 1021.3 |
| 20260506163043 | 56 | 272 | 1.7 | 4.3 | 0.00 | 0.00 | 0.00 | 80 | 1021.4 |
| 20260506161546 | 55 | 282 | 1.7 | 4.3 | 0.00 | 0.00 | 0.00 | 81 | 1021.2 |
| 20260506160046 | 54 | 261 | 1.7 | 5.2 | 0.00 | 0.00 | 0.00 | 81 | 1021.1 |
| 20260506154551 | 54 | 261 | 0.9 | 3.5 | 0.00 | 0.00 | 0.00 | 82 | 1021.1 |
| 20260506153042 | 53 | 0 | 1.7 | 3.5 | 0.00 | 0.00 | 0.00 | 83 | 1020.9 |
| 20260506151542 | 53 | 250 | 0.0 | 3.5 | 0.00 | 0.00 | 0.00 | 83 | 1020.7 |
| 20260506150049 | 52 | 304 | 2.6 | 9.6 | 0.00 | 0.00 | 0.00 | 84 | 1020.9 |
| 20260506144546 | 52 | 285 | 4.3 | 8.7 | 0.00 | 0.00 | 0.00 | 84 | 1021.0 |
| 20260506143038 | 52 | 262 | 4.3 | 13.9 | 0.00 | 0.00 | 0.00 | 85 | 1020.9 |
| 20260506141554 | 52 | 263 | 4.3 | 9.6 | 0.00 | 0.00 | 0.00 | 85 | 1020.8 |
| 20260506140042 | 52 | 281 | 4.3 | 11.3 | 0.00 | 0.00 | 0.00 | 86 | 1020.4 |
| 20260506134546 | 52 | 277 | 3.5 | 10.4 | 0.00 | 0.00 | 0.00 | 87 | 1020.3 |
| 20260506133046 | 51 | 257 | 2.6 | 6.1 | 0.00 | 0.00 | 0.00 | 87 | 1020.2 |
| 20260506131539 | 51 | 300 | 2.6 | 7.8 | 0.00 | 0.00 | 0.00 | 87 | 1020.2 |
| 20260506130037 | 51 | 294 | 2.6 | 7.8 | 0.00 | 0.00 | 0.00 | 87 | 1020.0 |
| 20260506124550 | 52 | 275 | 2.6 | 6.1 | 0.00 | 0.00 | 0.00 | 86 | 1019.9 |
| 20260506123046 | 52 | 276 | 3.5 | 9.6 | 0.00 | 0.00 | 0.00 | 85 | 1019.7 |
| 20260506121551 | 52 | 275 | 3.5 | 5.2 | 0.00 | 0.00 | 0.00 | 85 | 1019.7 |
| 20260506120107 | 53 | 279 | 3.5 | 7.0 | 0.00 | 0.00 | 0.00 | 85 | 1020.0 |
| 20260506114544 | 53 | 275 | 4.3 | 7.8 | 0.00 | 0.00 | 0.00 | 85 | 1019.8 |
| 20260506113039 | 53 | 276 | 5.2 | 10.4 | 0.00 | 0.00 | 0.00 | 85 | 1019.7 |
| 20260506111540 | 53 | 272 | 2.6 | 8.7 | 0.00 | 0.00 | 0.00 | 86 | 1019.6 |
| 20260506110041 | 53 | 314 | 4.3 | 12.2 | 0.00 | 0.00 | 0.00 | 86 | 1019.3 |
| 20260506104541 | 52 | 289 | 5.2 | 8.7 | 0.00 | 0.00 | 0.00 | 86 | 1019.2 |
| 20260506103037 | 52 | 284 | 4.3 | 10.4 | 0.00 | 0.00 | 0.00 | 86 | 1019.1 |
| 20260506101544 | 52 | 263 | 5.2 | 10.4 | 0.00 | 0.00 | 0.00 | 87 | 1019.0 |
| 20260506100042 | 52 | 265 | 4.3 | 10.4 | 0.00 | 0.00 | 0.00 | 87 | 1018.8 |
| 20260506094546 | 52 | 268 | 4.3 | 7.8 | 0.00 | 0.00 | 0.00 | 88 | 1018.8 |
| 20260506093047 | 51 | 286 | 4.3 | 9.6 | 0.00 | 0.00 | 0.00 | 89 | 1018.6 |
| 20260506091542 | 51 | 283 | 4.3 | 7.0 | 0.00 | 0.00 | 0.00 | 89 | 1018.5 |
| 20260506090241 | 51 | 282 | 2.6 | 6.1 | 0.00 | 0.00 | 0.00 | 90 | 1018.7 |
| 20260506084542 | 51 | 307 | 1.7 | 4.3 | 0.00 | 0.00 | 0.00 | 90 | 1018.6 |
| 20260506083047 | 51 | 305 | 1.7 | 6.1 | 0.00 | 0.00 | 0.00 | 90 | 1018.6 |
| 20260506081538 | 51 | 292 | 0.9 | 4.3 | 0.00 | 0.00 | 0.00 | 90 | 1018.4 |
| 20260506073041 | 52 | 280 | 1.7 | 4.3 | 0.00 | 0.00 | 0.00 | 88 | 1018.1 |
| 20260506071551 | 52 | 299 | 0.9 | 3.5 | 0.00 | 0.00 | 0.00 | 88 | 1017.9 |
| 20260506070104 | 52 | 292 | 1.7 | 4.3 | 0.00 | 0.00 | 0.00 | 88 | 1017.9 |
| 20260506061541 | 53 | 276 | 1.7 | 6.1 | 0.00 | 0.00 | 0.00 | 87 | 1017.8 |
| 20260506044553 | 53 | 281 | 5.2 | 10.4 | 0.00 | 0.00 | 0.00 | 85 | 1017.4 |
| 20260506043037 | 54 | 276 | 4.3 | 9.6 | 0.00 | 0.00 | 0.00 | 84 | 1017.2 |
| 20260506041549 | 54 | 294 | 4.3 | 11.3 | 0.00 | 0.00 | 0.00 | 84 | 1017.1 |